Weather in Kaktolga

Russia / Zabaykalsky Krai     52°46′46″N   119°35′34″E
temp.,
°C
wind,
m/s
gust,
m/s
humid.,
%
clouds,
%
prec.,
mm/h
press.,
hPa
HPBL,
m
23 january, sat
sat2300:00−26sse119599 0.0 102519
03:00−25s119799 0.0 102420
06:00−24s1296100 0.0 102220
09:00−23se1298100 0.2 102185
12:00−19sse1284100 0.3 1020286
15:00−15sw0276100 0.3 1020431
18:00−20nne019699 0.0 102320
21:00−22w009895 0.0 102620
24 january, sun
sun2400:00−22w009752 0.0 102720
03:00−23se009756 0.0 102820
06:00−21e119793 0.0 102920
09:00−22ene119897 0.0 103120
12:00−18ne1184100 0.0 1031222
15:00−17ne1281100 0.0 1031298
18:00−19ne1294100 0.0 103223
21:00−20nne2296100 0.0 103485
25 january, mon
mon2500:00−21nne2394100 0.1 1034179
03:00−21ne2794100 0.3 1034384
06:00−22ne3997100 0.6 1031424
09:00−23ne3998100 1.7 1029448
12:00−22ne41193100 0.8 1025534
15:00−20ene71395100 1.6 1020784
18:00−21ne71396100 2.1 1018812
21:00−22ne61396100 3.0 1015757
26 january, tue
tue2600:00−23ne51197100 1.0 1014750
03:00−25ne41096100 1.6 1014773
06:00−25nne3897100 0.4 1014836
09:00−26nnw2698100 0.6 1015285
12:00−23nnw3687100 0.3 1015785
15:00−22nnw3686100 0.4 1015896
18:00−23nnw2997100 0.1 1016770
21:00−24nnw3994100 0.3 1018723
27 january, wed
wed2700:00−26nnw3991100 0.1 1021688
03:00−28nnw31190100 0.1 1023723
06:00−29nnw31090100 0.0 1026752
09:00−30nnw3890100 0.1 1028662
12:00−28n3782100 0.0 1029799
15:00−27n4880100 0.1 1029962
18:00−28n2991100 0.0 1031958
21:00−31n21287100 0.0 1033692